User: anonymous
Location: Fremont
(37.5480°N, 121.9880°W)
Time: 16:56:17
(UTC-07:00)
Language:

Cosmos 1844 Rocket - Orbit

View from above orbital plane
View from above orbital plane
View from above satellite
View from above satellite

Ground track
Ground track

The orbit data is extracted from the following two-line orbital elements,

1 17974U 87041B   14273.35860385  .00000075  00000-0  60900-4 0  2267
2 17974 071.0096 197.2818 0011654 108.0843 030.5190 14.17117189416302
Epoch (UTC): 30 September 2014 08:36:23
Eccentricity: 0.0011654
inclination: 71.0096°
perigee height: 827 km
apogee height: 843 km
right ascension of ascending node: 197.2818°
argument of perigee: 108.0843°
revolutions per day: 14.17117189
mean anomaly at epoch: 30.5190°
orbit number at epoch: 41630

The dashed part of the orbit path shows where the satellite is in the earth's shadow,  

DLR